EW0860 Weather Reports


Display with metric or nautical units.
time (UTC)temp
F
wind
direction
speed
MPH
gust
MPH
rain 1hr
in
rain 24hr
in
rain mn
in
humidity
%
barometer
mb
20260502220004 65 359 3.0 8.0 0.00 0.00 0.00 33 1016.5
20260502214502 65 359 4.0 10.0 0.00 0.00 0.00 33 1016.6
20260502213100 65 359 3.0 7.0 0.00 0.00 0.00 30 1016.9
20260502211600 65 359 2.0 9.0 0.00 0.00 0.00 30 1017.0
20260502210057 65 8 2.0 7.0 0.00 0.00 0.00 33 1017.0
20260502204609 64 359 4.0 10.0 0.00 0.00 0.00 31 1017.3
20260502203113 64 359 2.0 9.0 0.00 0.00 0.00 31 1017.5
20260502201553 64 28 1.0 6.0 0.00 0.00 0.00 34 1017.6
20260502200051 63 359 2.0 6.0 0.00 0.00 0.00 32 1017.7
20260502194554 63 359 3.0 8.0 0.00 0.00 0.00 32 1017.9
20260502193048 62 359 1.0 6.0 0.00 0.00 0.00 33 1018.1
20260502191552 62 43 6.0 15.0 0.00 0.00 0.00 39 1018.1
20260502190045 62 27 3.0 8.0 0.00 0.00 0.00 36 1018.3
20260502184543 61 359 2.0 9.0 0.00 0.00 0.00 33 1018.5
20260502183042 61 27 4.0 11.0 0.00 0.00 0.00 35 1018.6
20260502181600 61 39 4.0 9.0 0.00 0.00 0.00 36 1019.0
20260502163033 58 359 1.0 7.0 0.00 0.00 0.00 40 1019.7
20260502161531 58 9 3.0 8.0 0.00 0.00 0.00 36 1019.7
20260502151523 56 359 3.0 8.0 0.00 0.00 0.00 41 1019.8
20260502123054 42 21 1.0 3.0 0.00 0.00 0.00 70 1019.3
20260502121553 41 308 0.0 3.0 0.00 0.00 0.00 73 1019.2
20260502114553 39 312 0.0 0.0 0.00 0.00 0.00 75 1018.9
20260502113051 39 312 0.0 0.0 0.00 0.00 0.00 74 1018.7
20260502111544 39 312 0.0 0.0 0.00 0.00 0.00 72 1018.5
20260502110044 40 312 0.0 3.0 0.00 0.00 0.00 71 1018.5
20260502104541 41 77 0.0 3.0 0.00 0.00 0.00 69 1018.4
20260502103037 41 100 0.0 0.0 0.00 0.00 0.00 67 1018.3
20260502101538 42 359 1.0 3.0 0.00 0.00 0.00 67 1018.2
20260502091527 43 114 0.0 0.0 0.00 0.00 0.00 64 1017.7
20260502071518 45 29 0.0 0.0 0.00 0.00 0.00 58 1017.4
20260502070017 46 29 0.0 0.0 0.00 0.00 0.00 57 1017.6
20260502064534 46 25 0.0 3.0 0.00 0.00 0.00 57 1017.6
20260502063018 45 28 0.0 0.0 0.00 0.00 0.00 60 1017.7
20260502061514 44 303 0.0 2.0 0.00 0.00 0.00 63 1017.7
20260502060014 45 304 0.0 0.0 0.00 0.00 0.00 63 1017.8
20260502054507 46 212 0.0 0.0 0.00 0.00 0.00 60 1017.6
20260502053005 47 212 0.0 0.0 0.00 0.00 0.00 57 1017.6
20260502051503 47 221 0.0 3.0 0.00 0.00 0.00 57 1017.6
20260502050002 48 223 0.0 0.0 0.00 0.00 0.00 56 1017.6
20260502044504 48 199 0.0 0.0 0.00 0.00 0.00 57 1017.5
20260502043001 48 209 0.0 0.0 0.00 0.00 0.00 58 1017.4
20260502041501 49 52 0.0 0.0 0.00 0.00 0.00 57 1017.5
20260502040108 50 39 0.0 0.0 0.00 0.00 0.00 54 1017.4
20260502034600 50 29 0.0 3.0 0.00 0.00 0.00 54 1017.3
20260502033100 51 27 0.0 1.0 0.00 0.00 0.00 56 1017.0
20260502031633 51 31 0.0 0.0 0.00 0.00 0.00 56 1016.9
20260502030101 52 35 0.0 0.0 0.00 0.00 0.00 55 1016.7
20260502024558 53 31 0.0 1.0 0.00 0.00 0.00 52 1016.4
20260502023059 54 29 1.0 3.0 0.00 0.00 0.00 51 1016.1
20260502021557 55 24 0.0 1.0 0.00 0.00 0.00 49 1015.8
20260502020112 55 24 0.0 4.0 0.00 0.00 0.00 49 1015.5
20260502014557 57 21 0.0 2.0 0.00 0.00 0.00 48 1015.3
20260502013105 58 23 0.0 4.0 0.00 0.00 0.00 45 1015.1
20260502011558 59 306 1.0 6.0 0.00 0.00 0.00 44 1014.9
20260502010055 60 301 2.0 11.0 0.00 0.00 0.00 43 1014.8
20260502004558 61 311 3.0 6.0 0.00 0.00 0.00 42 1014.5
20260502003125 61 316 3.0 9.0 0.00 0.00 0.00 41 1014.3
20260502001631 62 359 5.0 8.0 0.00 0.00 0.00 40 1014.2
20260502000053 63 311 4.0 7.0 0.00 0.00 0.00 39 1014.0
20260501234553 63 42 5.0 11.0 0.00 0.00 0.00 37 1014.1
20260501233053 64 359 6.0 13.0 0.00 0.00 0.00 36 1014.1
20260501231554 65 359 5.0 12.0 0.00 0.00 0.00 36 1013.9
20260501230052 65 359 4.0 11.0 0.00 0.00 0.00 36 1013.7
20260501224559 65 4 6.0 14.0 0.00 0.00 0.00 35 1013.8
20260501223051 65 359 6.0 16.0 0.00 0.00 0.00 36 1013.9
20260501221550 65 359 8.0 16.0 0.00 0.00 0.00 34 1013.9